Tracking 35237 objects as of 6-Sep-2026
HD Live streaming from Space Station
objects crossing your sky now

COSMOS 1813 DEB


COSMOS 1813 DEB is no longer on orbit


NORAD ID: 17408
Int'l Code: 1987-004P
Launch date: January 15, 1987
Source: Commonwealth of Independent States (former USSR) (CIS)
Launch site: PLESETSK MISSILE AND SPACE COMPLEX (PKMTR)
Decay date: 1989-01-22

Note: This is SATELLITE DEBRIS
Your satellite tracking list
Your tracking list is empty




NASA's NSSDC Master Catalog

Two Line Element Set (TLE):
1 17408U 87004  P 89022.17079905  .09927899 +88000-5 +70903-3 0  9994
2 17408 072.7785 084.0342 0026389 027.9462 337.3706 16.37813364109165
Source of the keplerian elements: AFSPC